Meteo Giornale » Osservazioni meteo Stati Uniti (USA) » Rockingham

ore: 02:55 - Osservazioni Meteo Rockingham
Lat. 34° 53' N Lon. 79° 46' W Alt. 109 metri s.l.m.

sereno

25 °C

Sereno

Temp. 24 Ore

21 °C

33 °C

Nord

5.5 Km/h

Dew point 23 °C

Umidità 88 %

Visibilità  10 Km

Il sole sorge alle ore 06:52

Il sole tramonta alle ore 19:45

Data e Ora Cielo e Fenomeni T °C DP °C Um. % Pres. hPa Vis. km Vento km/h
Oggi h: 02:55 sereno Sereno 25 23 88 1019 10 N 5.5
Oggi h: 02:35 sereno Sereno 25 23 88 1019 10 N 5.5
Oggi h: 02:15 sereno Sereno 25 23 88 1019 10 N 5.5
Oggi h: 01:55 sereno Sereno 25 23 88 1019 10 N 5.5
Oggi h: 01:35 sereno Sereno 25 23 88 1019 10 S 7.4
Oggi h: 01:15 sereno Sereno 25 23 88 1019 10 N 5.5
Oggi h: 00:55 sereno Sereno 25 23 88 1019 10 N 5.5
Oggi h: 00:35 sereno Sereno 26 23 83 1019 10 S 7.4
Oggi h: 00:15 sereno Sereno 26 23 83 1019 10 S 7.4
Ieri h: 23:55 sereno Sereno 26 23 83 1019 10 S 9.3
Ieri h: 23:35 sereno Sereno 27 23 78 1019 10 S 11.1
Ieri h: 23:15 sereno Sereno 27 22 74 1019 10 S/SE 13
Ieri h: 22:55 sereno Sereno 27 21 69 1019 10 SE 11.1
Ieri h: 22:35 sereno Sereno 27 22 74 1019 10 N 5.5
Ieri h: 22:15 sereno Sereno 28 22 69 1019 10 N 0
Ieri h: 21:55 sereno Sereno 28 22 69 1019 10 N 0
Ieri h: 21:35 sereno Sereno 28 22 69 1018 10 N 0
Ieri h: 21:15 sereno Sereno 28 22 69 1018 10 N 0
Ieri h: 20:55 sereno Sereno 28 22 69 1018 10 N 0
Ieri h: 20:35 sereno Sereno 28 23 74 1018 10 N 5.5
Ieri h: 20:15 sereno Sereno 29 22 66 1018 10 N 0
Ieri h: 19:55 sereno Sereno 29 22 66 1018 10 N 0
Ieri h: 19:35 sereno Sereno 30 22 62 1018 10 N 0
Ieri h: 19:15 sereno Sereno 32 20 49 1018 10 N 0
Ieri h: 18:55 sereno Sereno 32 20 49 1018 10 N 0
Ieri h: 18:35 sereno Sereno 32 20 49 1018 10 N 5.5
Ieri h: 18:15 sereno Sereno 33 20 46 1018 10 N 0
Ieri h: 17:55 sereno Sereno 33 20 46 1018 10 O 7.4
Ieri h: 17:35 sereno Sereno 33 20 46 1018 10 N 0
Ieri h: 17:15 sereno Sereno 33 20 46 1018 10 N 0
Ieri h: 16:55 sereno Sereno 33 20 46 1018 10 N 5.5
Ieri h: 16:35 sereno Sereno 33 19 43 1018 10 N 0
Ieri h: 16:15 sereno Sereno 33 20 46 1018 10 N 0
Ieri h: 15:55 sereno Sereno 33 21 49 1019 10 N 5.5
Ieri h: 15:35 sereno Sereno 33 21 49 1019 10 O 7.4
Ieri h: 15:15 sereno Sereno 32 20 49 1019 10 N 0
Ieri h: 14:55 sereno Sereno 32 21 52 1019 10 N 0
Ieri h: 14:35 sereno Sereno 32 21 52 1019 10 N 0
Ieri h: 14:15 sereno Sereno 32 21 52 1019 10 N 0
Ieri h: 13:55 sereno Sereno 31 21 55 1020 10 N 5.5
Ieri h: 13:35 sereno Sereno 31 21 55 1020 10 N 5.5
Ieri h: 13:15 sereno Sereno 30 21 58 1020 10 N 5.5
Ieri h: 12:55 sereno Sereno 30 21 58 1020 10 N 5.5
Ieri h: 12:35 sereno Sereno 30 21 58 1020 10 N 0
Ieri h: 12:15 sereno Sereno 30 22 62 1020 10 N 0
Ieri h: 11:55 sereno Sereno 29 22 66 1021 10 N 0
Ieri h: 11:35 nuvoloso Nuvoloso 29 22 66 1021 10 N 7.4
Ieri h: 11:15 molto_nuvoloso Molto Nuvoloso 29 23 70 1021 10 NO 11.1
Ieri h: 10:55 nuvoloso Nuvoloso 28 23 74 1021 10 O 7.4
Ieri h: 10:35 sereno Sereno 28 22 69 1021 10 O 11.1
Ieri h: 10:15 sereno Sereno 27 23 78 1020 10 O 9.3
Ieri h: 09:55 sereno Sereno 26 23 83 1020 10 N 0
Ieri h: 09:35 sereno Sereno 25 23 88 1020 10 N 5.5
Ieri h: 09:15 nuvoloso Nuvoloso 23 23 100 1020 11 N 0
Ieri h: 08:55 molto_nuvoloso Molto Nuvoloso 23 23 100 1020 6 N 0
Ieri h: 08:35 coperto Coperto 22 22 100 1020 2 N 0
Ieri h: 08:15 coperto Coperto 22 22 100 1020 2 N 0
Ieri h: 07:55 coperto Coperto 22 21 94 1020 2 N 0
Ieri h: 07:35 coperto Coperto 21 21 100 1020 0 N 0
Ieri h: 07:15 coperto Coperto 21 21 100 1020 2 N 0
Ieri h: 06:55 coperto Coperto 21 21 100 1020 2 N 0
Ieri h: 06:35 coperto Coperto 22 21 94 1020 2 N 0
Ieri h: 06:15 coperto Coperto 21 21 100 1020 2 N 0
Ieri h: 05:55 nuvoloso Nuvoloso 21 21 100 1020 6 N 0
Ieri h: 05:35 sereno Sereno 22 21 94 1020 10 N 0
Ieri h: 05:15 sereno Sereno 22 21 94 1020 11 N 0
Ieri h: 04:55 sereno Sereno 22 21 94 1020 11 N 0
Ieri h: 04:35 sereno Sereno 22 21 94 1020 8 N 0
Ieri h: 04:15 sereno Sereno 22 22 100 1020 11 N 0
Ieri h: 03:55 sereno Sereno 22 22 100 1020 11 N 0
Ieri h: 03:35 sereno Sereno 23 22 94 1020 10 N 0